﻿_id,日時,平均風速(m/s),平均風向,最大瞬間風速(m/s),最大風速時風向,気温(℃),湿度(%),10分間移動積算雨量(mm),1時間移動積算雨量(mm),日雨量(mm),累計雨量(mm)
1,2021-04-05T00:00:00,2.9,北北東,6.2,北北東,10.4,89.4,0,0,16.5,16.5
2,2021-04-05T00:01:00,3.1,北北東,6.2,北北東,10.4,89.5,0,0,0,16.5
3,2021-04-05T00:02:00,3,北北東,6.2,北北東,10.4,89.6,0,0,0,16.5
4,2021-04-05T00:03:00,3.1,北北東,6.2,北北東,10.3,89.6,0,0,0,16.5
5,2021-04-05T00:04:00,3.2,北北東,6.2,北北東,10.3,89.6,0,0,0,16.5
6,2021-04-05T00:05:00,3.2,北北東,6.2,北北東,10.3,89.9,0,0,0,16.5
7,2021-04-05T00:06:00,3.2,北北東,6.2,北北東,10.3,89.9,0,0,0,16.5
8,2021-04-05T00:07:00,3.3,北北東,6.2,北北東,10.3,90,0,0,0,16.5
9,2021-04-05T00:08:00,3.4,北北東,6.2,北北東,10.3,90.2,0,0,0,16.5
10,2021-04-05T00:09:00,3.3,北北東,6.1,北北東,10.3,90.2,0,0,0,16.5
11,2021-04-05T00:10:00,3.3,北北東,6.1,北北東,10.3,90.4,0,0,0,16.5
12,2021-04-05T00:11:00,3.4,北北東,6.1,北北東,10.3,90.5,0,0,0,16.5
13,2021-04-05T00:12:00,3.3,北北東,6.1,北北東,10.2,90.5,0,0,0,16.5
14,2021-04-05T00:13:00,3.2,北北東,6.1,北北東,10.3,90.7,0,0,0,16.5
15,2021-04-05T00:14:00,3.1,北北東,6.1,北北東,10.3,90.8,0,0,0,16.5
16,2021-04-05T00:15:00,3.2,北北東,6.1,北北東,10.2,90.8,0,0,0,16.5
17,2021-04-05T00:16:00,3.3,北北東,6.1,北北東,10.3,90.9,0,0,0,16.5
18,2021-04-05T00:17:00,3.2,北北東,6.1,北北東,10.2,90.8,0,0,0,16.5
19,2021-04-05T00:18:00,3.1,北北東,6.1,北北東,10.3,90.8,0,0,0,16.5
20,2021-04-05T00:19:00,3.3,北北東,6.1,北北東,10.3,90.8,0,0,0,16.5
21,2021-04-05T00:20:00,3.3,北北東,6.1,北北東,10.3,90.6,0,0,0,16.5
22,2021-04-05T00:21:00,3.3,北北東,6.1,北北東,10.3,90.5,0,0,0,16.5
23,2021-04-05T00:22:00,3.4,北北東,6.5,北北東,10.2,90.3,0,0,0,16.5
24,2021-04-05T00:23:00,3.5,北北東,6.5,北北東,10.3,90.4,0,0,0,16.5
25,2021-04-05T00:24:00,3.6,北北東,6.5,北北東,10.3,90.3,0,0,0,16.5
26,2021-04-05T00:25:00,3.5,北北東,6.5,北北東,10.2,90.2,0,0,0,16.5
27,2021-04-05T00:26:00,3.4,北北東,6.5,北北東,10.3,90.4,0,0,0,16.5
28,2021-04-05T00:27:00,3.4,北北東,6.5,北北東,10.3,90.4,0,0,0,16.5
29,2021-04-05T00:28:00,3.3,北北東,6.5,北北東,10.3,90.5,0,0,0,16.5
30,2021-04-05T00:29:00,3.2,北北東,6.5,北北東,10.3,90.5,0,0,0,16.5
31,2021-04-05T00:30:00,2.9,北北東,6.5,北北東,10.3,90.3,0,0,0,16.5
32,2021-04-05T00:31:00,3,北北東,6.5,北北東,10.2,90.2,0,0,0,16.5
33,2021-04-05T00:32:00,2.9,北北東,5.9,北東,10.3,90.2,0,0,0,16.5
34,2021-04-05T00:33:00,2.8,北北東,5.9,北東,10.2,90.2,0,0,0,16.5
35,2021-04-05T00:34:00,2.9,北北東,5.9,北東,10.2,90,0,0,0,16.5
36,2021-04-05T00:35:00,2.9,北北東,5.9,北東,10.2,90,0,0,0,16.5
37,2021-04-05T00:36:00,2.8,北北東,5.9,北北東,10.3,90.2,0,0,0,16.5
38,2021-04-05T00:37:00,2.9,北北東,6.1,北,10.2,90.2,0,0,0,16.5
39,2021-04-05T00:38:00,2.9,北北東,6.4,北北東,10.2,90,0,0,0,16.5
40,2021-04-05T00:39:00,3,北北東,6.4,北北東,10.2,90.1,0,0,0,16.5
41,2021-04-05T00:40:00,3,北北東,6.4,北北東,10.2,90,0,0,0,16.5
42,2021-04-05T00:41:00,3,北北東,6.4,北北東,10.2,90.1,0,0,0,16.5
43,2021-04-05T00:42:00,2.9,北北東,6.4,北北東,10.2,90,0,0,0,16.5
44,2021-04-05T00:43:00,2.9,北北東,6.4,北北東,10.2,90,0,0,0,16.5
45,2021-04-05T00:44:00,2.8,北北東,6.4,北北東,10.2,90.1,0,0,0,16.5
46,2021-04-05T00:45:00,2.8,北北東,6.4,北北東,10.2,90,0,0,0,16.5
47,2021-04-05T00:46:00,2.8,北北東,6.4,北北東,10.2,89.9,0,0,0,16.5
48,2021-04-05T00:47:00,2.7,北北東,6.4,北北東,10.2,89.8,0,0,0,16.5
49,2021-04-05T00:48:00,2.7,北北東,5.2,北北東,10.2,89.8,0,0,0,16.5
50,2021-04-05T00:49:00,2.7,北北東,5.1,北北東,10.2,89.9,0,0,0,16.5
51,2021-04-05T00:50:00,2.6,北北東,5.1,北北東,10.2,89.9,0,0,0,16.5
52,2021-04-05T00:51:00,2.7,北北東,6.8,北北東,10.2,89.9,0,0,0,16.5
53,2021-04-05T00:52:00,2.7,北北東,6.8,北北東,10.2,89.8,0,0,0,16.5
54,2021-04-05T00:53:00,2.6,北,6.8,北北東,10.2,89.8,0,0,0,16.5
55,2021-04-05T00:54:00,2.6,北,6.8,北北東,10.2,90,0,0,0,16.5
56,2021-04-05T00:55:00,2.4,北,6.8,北北東,10.2,90.1,0,0,0,16.5
57,2021-04-05T00:56:00,2.4,北,6.8,北北東,10.2,90.2,0,0,0,16.5
58,2021-04-05T00:57:00,2.4,北北東,6.8,北北東,10.2,90.1,0,0,0,16.5
59,2021-04-05T00:58:00,2.4,北北東,6.8,北北東,10.2,90.1,0,0,0,16.5
60,2021-04-05T00:59:00,2.4,北北東,6.8,北北東,10.2,90,0,0,0,16.5
61,2021-04-05T01:00:00,2.6,北北東,6.8,北北東,10.2,90,0,0,0,16.5
62,2021-04-05T01:01:00,2.6,北北東,5.8,北北東,10.2,90,0,0,0,16.5
63,2021-04-05T01:02:00,2.7,北北東,6.1,北東,10.2,90,0,0,0,16.5
64,2021-04-05T01:03:00,2.9,北北東,6.1,北東,10.2,89.9,0,0,0,16.5
65,2021-04-05T01:04:00,2.9,北北東,6.1,北東,10.2,89.8,0,0,0,16.5
66,2021-04-05T01:05:00,3.1,北北東,6.1,北東,10.1,89.6,0,0,0,16.5
67,2021-04-05T01:06:00,3.1,北北東,6.1,北東,10.1,89.7,0,0,0,16.5
68,2021-04-05T01:07:00,3.2,北北東,6.1,北東,10.1,89.8,0,0,0,16.5
69,2021-04-05T01:08:00,3.1,北北東,6.1,北東,10.1,89.6,0,0,0,16.5
70,2021-04-05T01:09:00,3.1,北北東,6.1,北東,10.1,89.8,0,0,0,16.5
71,2021-04-05T01:10:00,2.8,北北東,6.1,北東,10.1,89.9,0,0,0,16.5
72,2021-04-05T01:11:00,2.8,北北東,6.1,北東,10.1,90,0,0,0,16.5
73,2021-04-05T01:12:00,2.9,北北東,6.3,北北東,10.1,90.1,0,0,0,16.5
74,2021-04-05T01:13:00,2.8,北北東,6.3,北北東,10.1,90,0,0,0,16.5
75,2021-04-05T01:14:00,2.9,北北東,6.6,北東,10.1,90,0,0,0,16.5
76,2021-04-05T01:15:00,2.9,北北東,6.6,北東,10.1,89.8,0,0,0,16.5
77,2021-04-05T01:16:00,3.1,北北東,6.6,北東,10.1,89.7,0,0,0,16.5
78,2021-04-05T01:17:00,3,北北東,6.6,北東,10.1,89.5,0,0,0,16.5
79,2021-04-05T01:18:00,3.2,北北東,6.6,北東,10.1,89.4,0,0,0,16.5
80,2021-04-05T01:19:00,3.2,北北東,6.6,北東,10.1,89.3,0,0,0,16.5
81,2021-04-05T01:20:00,3.2,北北東,6.6,北東,10.2,89.4,0,0,0,16.5
82,2021-04-05T01:21:00,3.2,北北東,6.6,北東,10.1,89.2,0,0,0,16.5
83,2021-04-05T01:22:00,3.2,北北東,7.5,北東,10.1,89.2,0,0,0,16.5
84,2021-04-05T01:23:00,3.1,北北東,7.5,北東,10.2,89.3,0,0,0,16.5
85,2021-04-05T01:24:00,3,北北東,7.5,北東,10.1,88.9,0,0,0,16.5
86,2021-04-05T01:25:00,3.1,北北東,7.5,北東,10.1,88.9,0,0,0,16.5
87,2021-04-05T01:26:00,3,北北東,7.5,北東,10.1,89,0,0,0,16.5
88,2021-04-05T01:27:00,3.1,北北東,7.5,北東,10.1,89.1,0,0,0,16.5
89,2021-04-05T01:28:00,3,北北東,7.5,北東,10.1,89.2,0,0,0,16.5
90,2021-04-05T01:29:00,3.1,北北東,7.5,北東,10.1,89.4,0,0,0,16.5
91,2021-04-05T01:30:00,3.2,北北東,7.5,北東,10.1,89.2,0,0,0,16.5
92,2021-04-05T01:31:00,3.3,北北東,7.5,北東,10.1,89.3,0,0,0,16.5
93,2021-04-05T01:32:00,3.2,北北東,7.3,北北東,10.1,89.3,0,0,0,16.5
94,2021-04-05T01:33:00,3.2,北北東,7.3,北北東,10.1,89.4,0,0,0,16.5
95,2021-04-05T01:34:00,3.2,北北東,7.3,北北東,10.1,89.4,0,0,0,16.5
96,2021-04-05T01:35:00,3.1,北北東,7.3,北北東,10.1,89.6,0,0,0,16.5
97,2021-04-05T01:36:00,2.9,北北東,7.3,北北東,10.1,89.7,0,0,0,16.5
98,2021-04-05T01:37:00,3.1,北北東,7.3,北北東,10.1,89.7,0,0,0,16.5
99,2021-04-05T01:38:00,3,北北東,7.3,北北東,10.1,89.5,0,0,0,16.5
100,2021-04-05T01:39:00,3,北北東,6.1,北北東,10.1,89.5,0,0,0,16.5
101,2021-04-05T01:40:00,3,北北東,6.6,北北東,10.1,89.5,0,0,0,16.5
102,2021-04-05T01:41:00,3,北北東,6.6,北北東,10.1,89.3,0,0,0,16.5
103,2021-04-05T01:42:00,3,北北東,6.6,北北東,10.1,89.3,0,0,0,16.5
104,2021-04-05T01:43:00,3,北北東,6.6,北北東,10.1,89.3,0,0,0,16.5
105,2021-04-05T01:44:00,3.1,北北東,6.6,北北東,10.1,89.4,0,0,0,16.5
106,2021-04-05T01:45:00,3.2,北北東,6.6,北北東,10.1,89.3,0,0,0,16.5
107,2021-04-05T01:46:00,3.2,北北東,6.6,北北東,10.1,89.1,0,0,0,16.5
108,2021-04-05T01:47:00,3.2,北北東,6.6,北北東,10.1,89.2,0,0,0,16.5
109,2021-04-05T01:48:00,3.3,北北東,6.6,北北東,10.1,89.2,0,0,0,16.5
110,2021-04-05T01:49:00,3.3,北北東,6.6,北北東,10.1,89.3,0,0,0,16.5
111,2021-04-05T01:50:00,3.4,北北東,6.6,北北東,10.1,89.1,0,0,0,16.5
112,2021-04-05T01:51:00,3.4,北北東,6.6,北北東,10.1,89,0,0,0,16.5
113,2021-04-05T01:52:00,3.3,北北東,6.6,北北東,10.1,89.1,0,0,0,16.5
114,2021-04-05T01:53:00,3.2,北北東,6.6,北北東,10.1,89.2,0,0,0,16.5
115,2021-04-05T01:54:00,3,北北東,6.6,北北東,10.1,89.4,0,0,0,16.5
116,2021-04-05T01:55:00,2.8,北北東,6.6,北北東,10.1,89.4,0,0,0,16.5
117,2021-04-05T01:56:00,2.8,北北東,6.6,北北東,10.1,89.5,0,0,0,16.5
118,2021-04-05T01:57:00,2.8,北北東,6.6,北北東,10.1,89.5,0,0,0,16.5
119,2021-04-05T01:58:00,2.7,北北東,6.6,北北東,10,89.2,0,0,0,16.5
120,2021-04-05T01:59:00,2.6,北北東,6.6,北北東,10.1,89,0,0,0,16.5
121,2021-04-05T02:00:00,2.5,北北東,5.9,北東,10,89,0,0,0,16.5
122,2021-04-05T02:01:00,2.4,北北東,5.2,北北東,10,89,0,0,0,16.5
123,2021-04-05T02:02:00,2.4,北北東,5.2,北北東,10,88.9,0,0,0,16.5
124,2021-04-05T02:03:00,2.4,北北東,5.2,北北東,10.1,89,0,0,0,16.5
125,2021-04-05T02:04:00,2.5,北北東,5.2,北北東,10.1,89.3,0,0,0,16.5
126,2021-04-05T02:05:00,2.6,北北東,5.2,北北東,10.1,88.9,0,0,0,16.5
127,2021-04-05T02:06:00,2.4,北北東,5.2,北北東,10.1,88.8,0,0,0,16.5
128,2021-04-05T02:07:00,2.4,北北東,5.2,北北東,10.1,88.8,0,0,0,16.5
129,2021-04-05T02:08:00,2.3,北北東,5.2,北北東,10.1,88.7,0,0,0,16.5
130,2021-04-05T02:09:00,2.2,北北東,5,北,10.1,88.6,0,0,0,16.5
131,2021-04-05T02:10:00,2.3,北北東,5.1,北北東,10.1,88.6,0,0,0,16.5
132,2021-04-05T02:11:00,2.3,北北東,5.1,北北東,10.1,88.5,0,0,0,16.5
133,2021-04-05T02:12:00,2.5,北北東,6,北北東,10.1,88.5,0,0,0,16.5
134,2021-04-05T02:13:00,2.5,北北東,6,北北東,10.1,88.4,0,0,0,16.5
135,2021-04-05T02:14:00,2.4,北,6,北北東,10.1,88.2,0,0,0,16.5
136,2021-04-05T02:15:00,2.4,北,6,北北東,10.1,87.9,0,0,0,16.5
137,2021-04-05T02:16:00,2.5,北,6,北北東,10.1,88,0,0,0,16.5
138,2021-04-05T02:17:00,2.4,北,6,北北東,10.1,88,0,0,0,16.5
139,2021-04-05T02:18:00,2.4,北北東,6,北北東,10.1,88.1,0,0,0,16.5
140,2021-04-05T02:19:00,2.4,北北東,6,北北東,10.1,88,0,0,0,16.5
141,2021-04-05T02:20:00,2.4,北北東,6,北北東,10.1,88.2,0,0,0,16.5
142,2021-04-05T02:21:00,2.5,北北東,6,北北東,10.1,88.1,0,0,0,16.5
143,2021-04-05T02:22:00,2.3,北北東,5,北北東,10.1,88,0,0,0,16.5
144,2021-04-05T02:23:00,2.4,北北東,5.7,北北東,10.1,87.9,0,0,0,16.5
145,2021-04-05T02:24:00,2.6,北北東,5.7,北北東,10.1,87.8,0,0,0,16.5
146,2021-04-05T02:25:00,2.7,北北東,6.2,北,10.1,87.6,0,0,0,16.5
147,2021-04-05T02:26:00,2.9,北北東,6.2,北,10.1,87.3,0,0,0,16.5
148,2021-04-05T02:27:00,3,北北東,6.3,北東,10.1,87.1,0,0,0,16.5
149,2021-04-05T02:28:00,3,北北東,6.3,北東,10.1,87.2,0,0,0,16.5
150,2021-04-05T02:29:00,3.2,北北東,6.8,北東,10.1,87.1,0,0,0,16.5
151,2021-04-05T02:30:00,3.3,北北東,6.8,北東,10.1,86.9,0,0,0,16.5
152,2021-04-05T02:31:00,3.3,北北東,6.8,北東,10.1,86.6,0,0,0,16.5
153,2021-04-05T02:32:00,3.3,北北東,6.8,北東,10.1,86.6,0,0,0,16.5
154,2021-04-05T02:33:00,3.2,北北東,6.8,北東,10.1,86.4,0,0,0,16.5
155,2021-04-05T02:34:00,3.2,北北東,6.8,北東,10.1,86.4,0,0,0,16.5
156,2021-04-05T02:35:00,3.2,北北東,6.8,北東,10.1,86.2,0,0,0,16.5
157,2021-04-05T02:36:00,3.1,北北東,6.8,北東,10.1,86.2,0,0,0,16.5
158,2021-04-05T02:37:00,3.1,北北東,6.8,北東,10.1,86.3,0,0,0,16.5
159,2021-04-05T02:38:00,3.2,北北東,6.8,北東,10.1,86.2,0,0,0,16.5
160,2021-04-05T02:39:00,3.1,北北東,6.7,北北東,10.1,86.2,0,0,0,16.5
161,2021-04-05T02:40:00,3.1,北北東,6.2,北東,10.1,86.3,0,0,0,16.5
162,2021-04-05T02:41:00,3,北北東,6.2,北東,10.1,86.3,0,0,0,16.5
163,2021-04-05T02:42:00,3.2,北北東,7.1,北北東,10.1,86.1,0,0,0,16.5
164,2021-04-05T02:43:00,3.5,北北東,7.5,北東,10.1,85.8,0,0,0,16.5
165,2021-04-05T02:44:00,3.4,北北東,7.5,北東,10.1,85.7,0,0,0,16.5
166,2021-04-05T02:45:00,3.4,北北東,7.5,北東,10.1,85.7,0,0,0,16.5
167,2021-04-05T02:46:00,3.5,北北東,7.5,北東,10.1,85.7,0,0,0,16.5
168,2021-04-05T02:47:00,3.7,北北東,7.5,北東,10.1,85.8,0,0,0,16.5
169,2021-04-05T02:48:00,3.6,北北東,7.5,北東,10.1,85.9,0,0,0,16.5
170,2021-04-05T02:49:00,3.5,北北東,7.5,北東,10.1,85.9,0,0,0,16.5
171,2021-04-05T02:50:00,3.5,北北東,7.5,北東,10.1,85.9,0,0,0,16.5
172,2021-04-05T02:51:00,3.6,北北東,7.5,北東,10.1,85.8,0,0,0,16.5
173,2021-04-05T02:52:00,3.7,北北東,7.5,北東,10.1,85.6,0,0,0,16.5
174,2021-04-05T02:53:00,3.6,北北東,7,北東,10.1,85.4,0,0,0,16.5
175,2021-04-05T02:54:00,3.8,北北東,7,北東,10.1,85.3,0,0,0,16.5
176,2021-04-05T02:55:00,3.8,北北東,7,北東,10.1,85.1,0,0,0,16.5
177,2021-04-05T02:56:00,3.8,北北東,7,北東,10.1,85.1,0,0,0,16.5
178,2021-04-05T02:57:00,3.8,北北東,7.1,北東,10.1,85,0,0,0,16.5
179,2021-04-05T02:58:00,3.8,北北東,7.1,北東,10.1,84.8,0,0,0,16.5
180,2021-04-05T02:59:00,3.8,北北東,7.1,北東,10.1,84.3,0,0,0,16.5
181,2021-04-05T03:00:00,3.9,北北東,7.1,北東,10.1,84.1,0,0,0,16.5
182,2021-04-05T03:01:00,3.8,北北東,7.1,北東,10.1,84.1,0,0,0,16.5
183,2021-04-05T03:02:00,3.7,北北東,7.1,北東,10.1,84.2,0,0,0,16.5
184,2021-04-05T03:03:00,3.6,北北東,8.5,東北東,10.1,84,0,0,0,16.5
185,2021-04-05T03:04:00,3.7,北北東,8.5,東北東,10.1,83.9,0,0,0,16.5
186,2021-04-05T03:05:00,3.8,北北東,8.5,東北東,10.1,83.5,0,0,0,16.5
187,2021-04-05T03:06:00,3.9,北北東,8.5,東北東,10.1,83.4,0,0,0,16.5
188,2021-04-05T03:07:00,3.7,北北東,8.5,東北東,10.1,83.2,0,0,0,16.5
189,2021-04-05T03:08:00,3.8,北北東,8.5,東北東,10.1,83,0,0,0,16.5
190,2021-04-05T03:09:00,3.8,北北東,8.5,東北東,10.1,83,0,0,0,16.5
191,2021-04-05T03:10:00,3.9,北北東,9.4,北東,10.1,82.8,0,0,0,16.5
192,2021-04-05T03:11:00,4.1,北北東,9.4,北東,10.1,82.9,0,0,0,16.5
193,2021-04-05T03:12:00,4.2,北北東,9.4,北東,10.1,82.9,0,0,0,16.5
194,2021-04-05T03:13:00,4.2,北北東,9.4,北東,10,83.3,0,0,0,16.5
195,2021-04-05T03:14:00,4.1,北北東,9.4,北東,10,83.4,0,0,0,16.5
196,2021-04-05T03:15:00,4,北北東,9.4,北東,10,83.4,0,0,0,16.5
197,2021-04-05T03:16:00,3.9,北北東,9.4,北東,10,83.5,0,0,0,16.5
198,2021-04-05T03:17:00,4.1,北北東,9.4,北東,10,83.4,0,0,0,16.5
199,2021-04-05T03:18:00,4,北北東,9.4,北東,10,83.5,0,0,0,16.5
200,2021-04-05T03:19:00,4,北北東,9.4,北東,10,83.9,0,0,0,16.5
201,2021-04-05T03:20:00,3.9,北北東,7.9,北東,9.9,84,0,0,0,16.5
202,2021-04-05T03:21:00,4.1,北北東,8.2,北東,10,83.9,0,0,0,16.5
203,2021-04-05T03:22:00,4,北北東,8.2,北東,10,83.6,0,0,0,16.5
204,2021-04-05T03:23:00,3.9,北北東,8.2,北東,10,83.5,0,0,0,16.5
205,2021-04-05T03:24:00,4,北北東,8.2,北東,10,83.5,0,0,0,16.5
206,2021-04-05T03:25:00,3.9,北北東,8.2,北東,9.9,83.3,0,0,0,16.5
207,2021-04-05T03:26:00,4,北北東,8.2,北東,10,83.2,0,0,0,16.5
208,2021-04-05T03:27:00,4.1,北北東,8.2,北東,10,83.1,0,0,0,16.5
209,2021-04-05T03:28:00,4.2,北北東,8.2,北東,10,82.8,0,0,0,16.5
210,2021-04-05T03:29:00,4.1,北北東,8.2,北東,10,82.7,0,0,0,16.5
211,2021-04-05T03:30:00,4,北北東,8.2,北東,10,82.7,0,0,0,16.5
212,2021-04-05T03:31:00,3.7,北北東,8,北北東,9.9,82.7,0,0,0,16.5
213,2021-04-05T03:32:00,3.6,北北東,8,北北東,9.9,83.1,0,0,0,16.5
214,2021-04-05T03:33:00,3.5,北北東,8,北北東,9.9,83,0,0,0,16.5
215,2021-04-05T03:34:00,3.4,北北東,8,北北東,9.9,83,0,0,0,16.5
216,2021-04-05T03:35:00,3.5,北北東,8,北北東,10,83,0,0,0,16.5
217,2021-04-05T03:36:00,3.4,北北東,8,北北東,9.9,82.9,0,0,0,16.5
218,2021-04-05T03:37:00,3.2,北北東,7.9,北,9.9,82.8,0,0,0,16.5
219,2021-04-05T03:38:00,2.9,北北東,7.9,北,9.9,83,0,0,0,16.5
220,2021-04-05T03:39:00,2.9,北北東,6.8,北東,9.9,83.3,0,0,0,16.5
221,2021-04-05T03:40:00,2.7,北北東,6.8,北東,9.8,83.6,0,0,0,16.5
222,2021-04-05T03:41:00,2.7,北北東,6.8,北東,9.8,83.6,0,0,0,16.5
223,2021-04-05T03:42:00,2.8,北北東,6.8,北東,9.8,83.6,0,0,0,16.5
224,2021-04-05T03:43:00,2.9,北北東,6.8,北東,9.8,83.5,0,0,0,16.5
225,2021-04-05T03:44:00,2.7,北北東,6.7,北北東,9.9,83.4,0,0,0,16.5
226,2021-04-05T03:45:00,2.6,北北東,6.7,北北東,9.8,83.5,0,0,0,16.5
227,2021-04-05T03:46:00,2.4,北北東,6.7,北北東,9.8,83.6,0,0,0,16.5
228,2021-04-05T03:47:00,2.3,北北東,6.7,北北東,9.8,83.7,0,0,0,16.5
229,2021-04-05T03:48:00,2.6,北北東,6.7,北北東,9.8,83.8,0,0,0,16.5
230,2021-04-05T03:49:00,2.7,北北東,6.9,北北東,9.8,83.8,0,0,0,16.5
231,2021-04-05T03:50:00,2.9,北北東,6.9,北北東,9.8,83.9,0,0,0,16.5
232,2021-04-05T03:51:00,3.1,北北東,7.9,北東,9.8,83.7,0,0,0,16.5
233,2021-04-05T03:52:00,3.3,北北東,8.3,北東,9.8,83.7,0,0,0,16.5
234,2021-04-05T03:53:00,3.3,北北東,8.3,北東,9.8,83.7,0,0,0,16.5
235,2021-04-05T03:54:00,3.4,北北東,8.3,北東,9.8,83.8,0,0,0,16.5
236,2021-04-05T03:55:00,3.5,北北東,8.3,北東,9.8,83.7,0,0,0,16.5
237,2021-04-05T03:56:00,3.7,北北東,8.3,北東,9.8,83.7,0,0,0,16.5
238,2021-04-05T03:57:00,4,北北東,8.3,北東,9.8,83.9,0,0,0,16.5
239,2021-04-05T03:58:00,4.2,北北東,8.3,北東,9.8,83.7,0,0,0,16.5
240,2021-04-05T03:59:00,4.2,北北東,8.3,北東,9.8,83.7,0,0,0,16.5
241,2021-04-05T04:00:00,4.1,北北東,8.3,北東,9.8,83.6,0,0,0,16.5
242,2021-04-05T04:01:00,4.2,北北東,8.3,北東,9.7,83.4,0,0,0,16.5
243,2021-04-05T04:02:00,4.2,北北東,8.7,北東,9.8,83.3,0,0,0,16.5
244,2021-04-05T04:03:00,4.2,北北東,8.7,北東,9.7,83.4,0,0,0,16.5
245,2021-04-05T04:04:00,4.4,北北東,8.7,北東,9.7,83.4,0,0,0,16.5
246,2021-04-05T04:05:00,4.5,北北東,8.7,北東,9.7,83.2,0,0,0,16.5
247,2021-04-05T04:06:00,4.6,北北東,8.7,北東,9.7,83.4,0,0,0,16.5
248,2021-04-05T04:07:00,4.5,北北東,8.7,北東,9.7,83.5,0,0,0,16.5
249,2021-04-05T04:08:00,4.3,北北東,8.7,北東,9.7,83.6,0,0,0,16.5
250,2021-04-05T04:09:00,4.4,北北東,8.7,北東,9.7,83.6,0,0,0,16.5
251,2021-04-05T04:10:00,4.4,北北東,8.7,北東,9.7,83.4,0,0,0,16.5
252,2021-04-05T04:11:00,4.3,北北東,8.7,北東,9.7,83.1,0,0,0,16.5
253,2021-04-05T04:12:00,4.2,北北東,8.2,北北東,9.7,82.8,0,0,0,16.5
254,2021-04-05T04:13:00,4.1,北北東,8.2,北北東,9.7,82.5,0,0,0,16.5
255,2021-04-05T04:14:00,3.9,北北東,7.8,北北東,9.7,82.5,0,0,0,16.5
256,2021-04-05T04:15:00,3.7,北北東,7.6,北北東,9.7,82.6,0,0,0,16.5
257,2021-04-05T04:16:00,3.8,北北東,7.6,北北東,9.7,82.5,0,0,0,16.5
258,2021-04-05T04:17:00,3.7,北北東,7.6,北北東,9.7,82.3,0,0,0,16.5
259,2021-04-05T04:18:00,3.7,北北東,7.6,北北東,9.7,82.3,0,0,0,16.5
260,2021-04-05T04:19:00,3.7,北北東,9.4,北北東,9.7,82.3,0,0,0,16.5
261,2021-04-05T04:20:00,3.7,北北東,9.4,北北東,9.7,82.3,0,0,0,16.5
262,2021-04-05T04:21:00,3.7,北北東,9.4,北北東,9.7,82.1,0,0,0,16.5
263,2021-04-05T04:22:00,3.7,北北東,9.4,北北東,9.7,82.2,0,0,0,16.5
264,2021-04-05T04:23:00,3.7,北北東,9.4,北北東,9.7,82,0,0,0,16.5
265,2021-04-05T04:24:00,3.6,北北東,9.4,北北東,9.7,82.1,0,0,0,16.5
266,2021-04-05T04:25:00,3.6,北北東,9.4,北北東,9.7,82.1,0,0,0,16.5
267,2021-04-05T04:26:00,3.6,北北東,9.4,北北東,9.7,82.2,0,0,0,16.5
268,2021-04-05T04:27:00,3.7,北北東,9.4,北北東,9.7,82.1,0,0,0,16.5
269,2021-04-05T04:28:00,3.8,北北東,9.4,北北東,9.7,82.1,0,0,0,16.5
270,2021-04-05T04:29:00,3.8,北北東,8,北東,9.7,82.3,0,0,0,16.5
271,2021-04-05T04:30:00,3.8,北北東,8,北東,9.6,82.1,0,0,0,16.5
272,2021-04-05T04:31:00,3.8,北北東,8.2,北北東,9.6,82.1,0,0,0,16.5
273,2021-04-05T04:32:00,3.8,北北東,8.2,北北東,9.6,82.1,0,0,0,16.5
274,2021-04-05T04:33:00,4,北北東,9,北東,9.7,82.3,0,0,0,16.5
275,2021-04-05T04:34:00,4.1,北北東,9,北東,9.6,82.1,0,0,0,16.5
276,2021-04-05T04:35:00,4.1,北北東,9,北東,9.7,82.2,0,0,0,16.5
277,2021-04-05T04:36:00,3.9,北北東,9,北東,9.6,82.2,0,0,0,16.5
278,2021-04-05T04:37:00,4,北北東,9,北東,9.6,82.2,0,0,0,16.5
279,2021-04-05T04:38:00,4,北北東,9,北東,9.6,82,0,0,0,16.5
280,2021-04-05T04:39:00,3.9,北北東,9,北東,9.6,82.1,0,0,0,16.5
281,2021-04-05T04:40:00,3.8,北北東,9,北東,9.7,82.1,0,0,0,16.5
282,2021-04-05T04:41:00,3.8,北北東,9,北東,9.6,82.1,0,0,0,16.5
283,2021-04-05T04:42:00,3.5,北北東,9,北東,9.6,82,0,0,0,16.5
284,2021-04-05T04:43:00,3.4,北北東,7.9,北北東,9.6,82.1,0,0,0,16.5
285,2021-04-05T04:44:00,3.4,北北東,7.9,北北東,9.6,82.3,0,0,0,16.5
286,2021-04-05T04:45:00,3.3,北北東,7.9,北北東,9.6,82.4,0,0,0,16.5
287,2021-04-05T04:46:00,3.3,北北東,7.9,北北東,9.6,82.9,0,0,0,16.5
288,2021-04-05T04:47:00,3.1,北北東,6.9,北北東,9.6,82.9,0,0,0,16.5
289,2021-04-05T04:48:00,3.1,北北東,7.2,北東,9.6,82.8,0,0,0,16.5
290,2021-04-05T04:49:00,3.2,北北東,8.2,北東,9.6,82.7,0,0,0,16.5
291,2021-04-05T04:50:00,3.4,北北東,8.5,北,9.6,82.4,0,0,0,16.5
292,2021-04-05T04:51:00,3.5,北北東,8.5,北,9.6,82.4,0,0,0,16.5
293,2021-04-05T04:52:00,3.8,北北東,8.5,北,9.6,82.4,0,0,0,16.5
294,2021-04-05T04:53:00,3.6,北北東,8.5,北,9.5,82.5,0,0,0,16.5
295,2021-04-05T04:54:00,3.5,北北東,8.5,北,9.5,82.7,0,0,0,16.5
296,2021-04-05T04:55:00,3.6,北北東,8.5,北,9.5,82.8,0,0,0,16.5
297,2021-04-05T04:56:00,3.8,北北東,9.9,北東,9.5,82.7,0,0,0,16.5
298,2021-04-05T04:57:00,3.8,北北東,9.9,北東,9.5,82.6,0,0,0,16.5
299,2021-04-05T04:58:00,3.9,北北東,10.8,北東,9.5,82.6,0,0,0,16.5
300,2021-04-05T04:59:00,3.9,北北東,10.8,北東,9.5,82.5,0,0,0,16.5
301,2021-04-05T05:00:00,4,北北東,10.8,北東,9.5,82.6,0,0,0,16.5
302,2021-04-05T05:01:00,3.8,北北東,10.8,北東,9.5,82.8,0,0,0,16.5
303,2021-04-05T05:02:00,3.8,北北東,10.8,北東,9.5,82.9,0,0,0,16.5
304,2021-04-05T05:03:00,3.9,北北東,10.8,北東,9.4,82.7,0,0,0,16.5
305,2021-04-05T05:04:00,4.2,北北東,10.8,北東,9.5,82.6,0,0,0,16.5
306,2021-04-05T05:05:00,4.2,北北東,10.8,北東,9.5,82.6,0,0,0,16.5
307,2021-04-05T05:06:00,4.2,北北東,10.8,北東,9.5,82.6,0,0,0,16.5
308,2021-04-05T05:07:00,4,北北東,10.8,北東,9.5,82.4,0,0,0,16.5
309,2021-04-05T05:08:00,3.9,北北東,8.2,北北東,9.5,82,0,0,0,16.5
310,2021-04-05T05:09:00,3.8,北北東,7.9,北東,9.5,81.7,0,0,0,16.5
311,2021-04-05T05:10:00,3.7,北北東,7.9,北東,9.5,81.6,0,0,0,16.5
312,2021-04-05T05:11:00,3.8,北北東,7.9,北東,9.5,81.7,0,0,0,16.5
313,2021-04-05T05:12:00,3.6,北北東,7.9,北東,9.4,81.9,0,0,0,16.5
314,2021-04-05T05:13:00,3.4,北北東,7.9,北東,9.4,81.9,0,0,0,16.5
315,2021-04-05T05:14:00,3.3,北北東,7.9,北東,9.4,81.9,0,0,0,16.5
316,2021-04-05T05:15:00,3.4,北北東,9.1,北東,9.4,81.8,0,0,0,16.5
317,2021-04-05T05:16:00,3.6,北北東,9.1,北東,9.4,81.8,0,0,0,16.5
318,2021-04-05T05:17:00,3.6,北北東,9.1,北東,9.4,81.5,0,0,0,16.5
319,2021-04-05T05:18:00,3.3,北北東,9.1,北東,9.4,81.4,0,0,0,16.5
320,2021-04-05T05:19:00,3.3,北北東,9.1,北東,9.4,81.5,0,0,0,16.5
321,2021-04-05T05:20:00,3.1,北北東,9.1,北東,9.4,81.7,0,0,0,16.5
322,2021-04-05T05:21:00,3.1,北北東,9.1,北東,9.4,81.2,0,0,0,16.5
323,2021-04-05T05:22:00,3.3,北北東,9.8,北北東,9.4,81.3,0,0,0,16.5
324,2021-04-05T05:23:00,3.4,北北東,9.8,北北東,9.4,81.4,0,0,0,16.5
325,2021-04-05T05:24:00,3.4,北北東,9.8,北北東,9.4,81.5,0,0,0,16.5
326,2021-04-05T05:25:00,3.1,北北東,9.8,北北東,9.4,81.8,0,0,0,16.5
327,2021-04-05T05:26:00,3,北北東,9.8,北北東,9.4,81.6,0,0,0,16.5
328,2021-04-05T05:27:00,2.9,北北東,9.8,北北東,9.3,81.7,0,0,0,16.5
329,2021-04-05T05:28:00,2.9,北北東,9.8,北北東,9.3,81.8,0,0,0,16.5
330,2021-04-05T05:29:00,3,北北東,9.8,北北東,9.3,82.1,0,0,0,16.5
331,2021-04-05T05:30:00,3,北北東,9.8,北北東,9.3,82.2,0,0,0,16.5
332,2021-04-05T05:31:00,2.8,北北東,9.8,北北東,9.3,82.5,0,0,0,16.5
333,2021-04-05T05:32:00,2.7,北,5.6,北,9.2,82.4,0,0,0,16.5
334,2021-04-05T05:33:00,2.9,北北東,8.2,北東,9.2,82.4,0,0,0,16.5
335,2021-04-05T05:34:00,3,北,8.2,北東,9.2,82.3,0,0,0,16.5
336,2021-04-05T05:35:00,2.9,北,8.2,北東,9.2,82.7,0,0,0,16.5
337,2021-04-05T05:36:00,2.8,北,8.2,北東,9.1,82.7,0,0,0,16.5
338,2021-04-05T05:37:00,2.9,北,8.2,北東,9.1,82.7,0,0,0,16.5
339,2021-04-05T05:38:00,3.1,北,8.2,北東,9,82.1,0,0,0,16.5
340,2021-04-05T05:39:00,3,北,8.2,北東,9,81.5,0,0,0,16.5
341,2021-04-05T05:40:00,3.1,北,8.2,北東,9,80.9,0,0,0,16.5
342,2021-04-05T05:41:00,3.2,北,8.2,北東,9,80.5,0,0,0,16.5
343,2021-04-05T05:42:00,3,北,8.2,北東,9,80,0,0,0,16.5
344,2021-04-05T05:43:00,2.9,北,7.2,北西,9,79.9,0,0,0,16.5
345,2021-04-05T05:44:00,2.7,北,7.2,北西,9,79.8,0,0,0,16.5
346,2021-04-05T05:45:00,2.7,北,7.2,北西,9,80,0,0,0,16.5
347,2021-04-05T05:46:00,2.7,北,7.2,北西,9,79.7,0,0,0,16.5
348,2021-04-05T05:47:00,2.6,北,7.2,北西,9,79.7,0,0,0,16.5
349,2021-04-05T05:48:00,2.5,北,6.3,北西,9,79.3,0,0,0,16.5
350,2021-04-05T05:49:00,2.5,北,6.3,北西,8.9,78.8,0,0,0,16.5
351,2021-04-05T05:50:00,2.5,北,7.4,北西,8.9,78.4,0,0,0,16.5
352,2021-04-05T05:51:00,2.6,北,7.4,北西,9,77.7,0,0,0,16.5
353,2021-04-05T05:52:00,2.8,北,7.4,北西,8.9,77.4,0,0,0,16.5
354,2021-04-05T05:53:00,2.8,北,7.4,北西,8.9,77.1,0,0,0,16.5
355,2021-04-05T05:54:00,2.9,北,7.4,北西,8.9,77.1,0,0,0,16.5
356,2021-04-05T05:55:00,2.7,北,7.4,北西,8.9,76.9,0,0,0,16.5
357,2021-04-05T05:56:00,2.6,北,7.4,北西,8.9,77.2,0,0,0,16.5
358,2021-04-05T05:57:00,2.8,北,7.4,北西,8.8,77.1,0,0,0,16.5
359,2021-04-05T05:58:00,2.8,北,7.4,北西,8.8,77.2,0,0,0,16.5
360,2021-04-05T05:59:00,2.8,北,7.4,北西,8.8,77.1,0,0,0,16.5
361,2021-04-05T06:00:00,2.6,北,7.2,北西,8.8,77,0,0,0,16.5
362,2021-04-05T06:01:00,2.6,北,7.2,北西,8.8,77.3,0,0,0,16.5
363,2021-04-05T06:02:00,2.4,北,7.2,北西,8.7,77.3,0,0,0,16.5
364,2021-04-05T06:03:00,2.2,北,7.2,北西,8.7,77.4,0,0,0,16.5
365,2021-04-05T06:04:00,2.2,北,7.2,北西,8.7,77.6,0,0,0,16.5
366,2021-04-05T06:05:00,2.3,北,7.2,北西,8.7,77.4,0,0,0,16.5
367,2021-04-05T06:06:00,2.3,北,7.2,北西,8.7,77.4,0,0,0,16.5
368,2021-04-05T06:07:00,2.3,北,7.9,北,8.7,77.3,0,0,0,16.5
369,2021-04-05T06:08:00,2.4,北,7.9,北,8.7,77.3,0,0,0,16.5
370,2021-04-05T06:09:00,2.4,北,7.9,北,8.6,76.8,0,0,0,16.5
371,2021-04-05T06:10:00,2.5,北,7.9,北,8.7,76.7,0,0,0,16.5
372,2021-04-05T06:11:00,2.5,北北東,7.9,北,8.6,76.7,0,0,0,16.5
373,2021-04-05T06:12:00,2.6,北北東,7.9,北,8.6,76.4,0,0,0,16.5
374,2021-04-05T06:13:00,2.6,北,7.9,北,8.6,76.2,0,0,0,16.5
375,2021-04-05T06:14:00,2.6,北,7.9,北,8.6,76.2,0,0,0,16.5
376,2021-04-05T06:15:00,2.6,北,7.9,北,8.6,76.3,0,0,0,16.5
377,2021-04-05T06:16:00,2.7,北,7.9,北,8.5,76,0,0,0,16.5
378,2021-04-05T06:17:00,2.7,北,6.4,東北東,8.6,76.2,0,0,0,16.5
379,2021-04-05T06:18:00,2.5,北,6.4,東北東,8.5,76.2,0,0,0,16.5
380,2021-04-05T06:19:00,2.4,北,6.4,東北東,8.5,76.1,0,0,0,16.5
381,2021-04-05T06:20:00,2.3,北,6.4,東北東,8.5,76.6,0,0,0,16.5
382,2021-04-05T06:21:00,2.2,北,6.3,北北東,8.5,76.8,0,0,0,16.5
383,2021-04-05T06:22:00,2.2,北,6.3,北北東,8.5,76.8,0,0,0,16.5
384,2021-04-05T06:23:00,2.3,北,6.3,北北東,8.5,77.2,0,0,0,16.5
385,2021-04-05T06:24:00,2.3,北,6.9,北北東,8.5,76.7,0,0,0,16.5
386,2021-04-05T06:25:00,2.3,北,6.9,北北東,8.5,76.3,0,0,0,16.5
387,2021-04-05T06:26:00,2.3,北,8.7,北北東,8.5,76.5,0,0,0,16.5
388,2021-04-05T06:27:00,2.4,北,9.6,北北東,8.5,76.3,0,0,0,16.5
389,2021-04-05T06:28:00,2.7,北,9.6,北北東,8.5,75.8,0,0,0,16.5
390,2021-04-05T06:29:00,2.9,北,9.6,北北東,8.4,76.1,0,0,0,16.5
391,2021-04-05T06:30:00,3.1,北,9.6,北北東,8.4,76.3,0,0,0,16.5
392,2021-04-05T06:31:00,3.3,北,9.6,北北東,8.4,76.2,0,0,0,16.5
393,2021-04-05T06:32:00,3.5,北北東,9.6,北北東,8.4,76.2,0,0,0,16.5
394,2021-04-05T06:33:00,3.7,北北東,9.6,北北東,8.4,76.4,0,0,0,16.5
395,2021-04-05T06:34:00,3.8,北北東,9.6,北北東,8.4,76.5,0,0,0,16.5
396,2021-04-05T06:35:00,4.1,北北東,9.6,北北東,8.4,76.4,0,0,0,16.5
397,2021-04-05T06:36:00,4.1,北北東,9.6,北北東,8.4,76.3,0,0,0,16.5
398,2021-04-05T06:37:00,3.9,北北東,8.6,北東,8.5,76.4,0,0,0,16.5
399,2021-04-05T06:38:00,3.8,北北東,8.4,北北東,8.4,76.3,0,0,0,16.5
400,2021-04-05T06:39:00,4,北北東,8.4,北北東,8.4,76.3,0,0,0,16.5
401,2021-04-05T06:40:00,4.1,北北東,8.4,北北東,8.4,76.3,0,0,0,16.5
402,2021-04-05T06:41:00,3.8,北北東,8.2,北東,8.5,76.8,0,0,0,16.5
403,2021-04-05T06:42:00,3.6,北北東,8,北北東,8.4,76.7,0,0,0,16.5
404,2021-04-05T06:43:00,3.4,北北東,8,北北東,8.4,76.8,0,0,0,16.5
405,2021-04-05T06:44:00,3.3,北北東,8,北北東,8.4,77,0,0,0,16.5
406,2021-04-05T06:45:00,3.3,北北東,8.9,北北東,8.4,76.8,0,0,0,16.5
407,2021-04-05T06:46:00,3.4,北北東,8.9,北北東,8.4,76.1,0,0,0,16.5